Wind_Speed
14 14 13 14 15 18 20 24 27 28 33 36 38 41 41 41 42 41 42 42 42 44 44 45 45 44 44 44 42 44 46 47 48 49 49 50 50 49 50 52 53 53 56 58
16 16 19 19 23 25 27 31 33 34 35 40 42 43 44 42 42 40 43 39 38 39 42 45 44 44 45 48 46 47 47 48 50 51 54 55 55 54 54 54 56 57 55 54
18 21 24 27 28 32 33 35 39 39 39 40 44 48 44 38 29 36 44 42 36 38 42 49 53 52 51 50 50 48 49 52 52 52 54 55 56 57 58 58 58 59 58 56
21 27 31 31 33 36 35 37 42 42 44 44 41 50 40 32 25 27 37 41 41 40 47 48 52 55 55 53 53 53 51 48 53 55 56 57 58 59 58 59 61 61 60 57
26 31 34 36 35 37 39 41 41 42 43 44 42 28 35 18 22 18 22 31 37 45 47 51 54 56 59 60 62 57 54 49 50 49 51 53 55 57 59 58 58 60 60 59
33 37 37 41 39 39 42 40 42 43 41 41 27 26 26 20 26 30 32 39 39 49 48 44 44 44 53 59 62 47 54 46 42 50 50 50 50 52 53 52 50 50 54 57
29 30 35 42 40 39 37 40 44 45 39 36 22 26 30 31 31 34 37 41 52 53 36 35 38 43 40 45 56 47 47 49 55 49 47 45 46 50 48 46 43 41 42 48
34 25 37 43 40 41 39 38 34 39 36 39 34 38 32 24 33 43 46 51 50 47 58 50 40 48 53 41 41 49 50 49 52 50 48 48 46 43 45 42 41 38 41 43
37 36 35 36 35 32 32 30 32 38 39 43 38 36 17 29 44 50 50 55 61 57 53 43 43 57 61 47 32 50 51 49 48 45 50 51 50 45 41 44 42 40 40 40
36 38 33 35 32 31 35 36 38 35 40 46 43 38 37 24 31 36 38 39 40 42 38 43 50 59 60 54 48 48 47 49 45 40 48 50 49 47 43 40 41 39 39 42
38 39 32 31 29 35 37 31 30 35 37 42 45 47 35 41 43 47 51 56 64 67 67 67 64 55 63 56 54 51 43 45 43 39 46 48 46 42 40 40 39 38 37 36
34 31 33 36 38 40 40 35 35 32 37 47 49 53 45 45 47 49 55 53 51 58 52 50 44 53 52 64 66 55 46 43 44 42 47 46 44 41 38 38 38 38 33 37
31 34 42 44 31 36 39 39 36 40 45 50 52 47 43 45 50 44 51 51 48 52 53 54 54 54 56 58 59 47 44 40 42 45 46 43 40 39 38 37 38 37 32 34
36 38 43 45 44 45 47 47 38 35 42 45 45 45 42 38 55 53 50 36 37 45 46 50 53 52 50 51 53 46 42 42 42 42 41 40 38 36 37 36 37 37 34 34
42 43 44 46 44 46 46 42 34 40 44 49 43 48 51 52 51 44 37 39 41 43 43 45 48 49 48 49 50 45 42 45 43 42 38 37 36 34 34 32 36 36 32 33
41 43 45 47 47 45 46 37 35 26 25 27 39 45 52 44 38 37 40 41 45 46 47 50 52 50 48 47 47 43 40 42 43 41 39 36 32 32 31 31 34 34 31 30
37 39 41 43 43 43 35 27 32 34 38 32 43 40 36 30 33 38 45 47 48 48 48 46 45 45 46 43 41 36 35 38 39 38 36 32 28 29 31 31 28 31 30 33
44 45 47 46 42 36 28 34 33 33 39 35 35 36 32 36 36 42 49 55 54 52 47 44 41 40 39 39 38 33 29 27 29 30 30 28 27 27 29 27 26 29 31 36
45 46 46 39 38 38 27 29 34 30 29 33 32 33 35 38 44 40 50 53 52 49 48 47 44 41 38 35 33 26 22 24 24 26 28 27 25 25 26 25 26 28 29 31
46 46 39 40 37 30 32 32 30 31 36 35 35 37 42 45 49 46 51 47 47 46 44 41 34 28 28 29 27 26 24 24 24 25 26 26 26 26 27 25 24 27 29 29
43 41 38 34 28 29 30 29 31 34 33 32 38 42 46 49 52 58 53 46 44 42 39 33 30 29 27 22 22 24 25 26 27 28 28 28 26 26 25 25 25 28 25 26
43 42 34 26 30 25 31 29 32 30 32 37 40 44 50 52 56 55 47 45 44 40 34 32 30 25 20 19 16 15 15 18 22 28 33 33 29 28 25 26 28 27 25 24
41 40 38 27 24 26 30 32 30 33 37 39 44 48 54 57 59 51 48 41 32 28 23 19 18 14 10 10 12 11 10 10 13 18 21 25 28 26 27 29 28 28 27 23
40 39 26 24 28 32 32 30 32 35 37 41 47 52 55 58 50 47 33 22 19 19 20 20 19 18 17 15 16 12 8 7 7 10 14 18 22 26 28 28 27 26 23 24
40 34 24 28 32 31 30 32 34 36 40 45 49 51 55 50 43 24 20 21 24 24 24 25 25 24 25 23 22 20 13 9 8 11 17 21 24 24 23 22 22 21 22 23
39 35 31 32 30 30 31 33 34 35 40 44 49 49 48 40 26 19 24 29 26 26 26 27 26 25 23 18 15 18 20 15 13 16 23 25 24 23 18 13 12 16 20 19
Wind_Direction
302 307 308 277 301 297 293 288 290 294 298 300 304 307 308 303 298 292 289 290 290 290 285 288 287 288 286 285 286 283 280 278 275 273 271 270 269 266 263 261 260 259 261 264
295 311 292 301 295 292 292 292 292 295 301 300 301 303 304 299 293 289 287 288 285 283 284 286 284 284 284 285 284 285 282 279 276 275 274 272 269 267 265 262 259 256 254 257
293 295 289 299 296 295 296 297 293 297 296 297 299 301 306 298 279 284 285 286 280 280 285 287 286 285 286 287 289 287 284 283 282 281 277 274 272 268 265 263 260 259 259 257
296 294 295 298 296 296 300 295 299 301 300 302 299 300 301 303 301 288 299 296 293 293 290 293 295 295 294 294 293 289 287 287 285 283 281 278 275 271 267 261 259 258 257 254
296 294 296 295 297 299 299 299 299 299 300 303 305 303 310 310 276 288 283 277 276 285 293 299 299 301 302 305 300 300 292 293 289 285 283 278 273 269 265 261 257 254 252 251
296 299 297 298 303 306 303 301 301 305 310 306 312 299 311 284 265 264 274 277 279 279 294 304 299 293 311 303 296 293 304 295 289 289 286 283 279 272 267 264 260 256 252 247
299 300 298 297 305 304 308 310 308 305 302 300 283 258 257 265 281 277 263 259 273 286 285 274 274 291 315 280 272 286 299 281 286 289 285 279 278 270 262 260 258 257 255 250
301 293 291 307 307 310 310 307 309 304 308 303 304 297 300 286 268 262 258 259 264 272 287 285 279 297 292 283 268 279 293 290 287 286 283 281 281 272 261 255 252 255 249 248
301 301 308 306 307 305 307 307 302 304 304 301 303 301 300 284 291 284 280 280 276 274 274 273 261 295 289 264 267 281 286 287 281 281 279 280 280 276 266 254 251 253 250 244
304 302 309 306 311 313 314 314 310 307 307 303 305 296 297 274 279 284 281 290 275 275 270 273 272 283 281 276 286 272 290 291 291 279 277 275 276 276 267 265 251 252 250 246
307 309 310 310 315 313 308 293 292 298 287 280 291 298 291 288 274 269 273 273 274 277 277 278 278 272 275 284 272 291 294 289 290 283 277 277 276 271 267 266 251 247 249 246
304 309 308 310 315 310 313 312 305 309 299 291 288 296 295 286 295 286 283 280 277 280 284 284 287 271 278 283 285 292 288 280 281 283 278 275 272 262 262 264 252 247 253 239
307 312 311 311 311 303 299 298 294 285 288 290 288 297 295 294 289 289 286 288 288 281 284 289 297 296 289 288 288 285 284 287 286 279 274 273 270 257 256 261 252 245 242 237
308 312 310 310 314 314 310 307 307 308 289 292 288 291 292 285 286 286 289 291 298 287 289 286 287 287 287 287 287 286 283 280 278 273 275 273 269 256 253 256 252 246 243 239
313 314 312 313 316 312 313 310 304 282 281 279 289 284 279 280 294 292 295 295 296 296 293 292 288 286 283 283 283 282 280 276 273 271 277 273 263 253 249 252 254 250 247 237
316 318 316 316 317 315 315 310 296 300 293 295 288 289 290 297 290 292 298 295 294 293 292 291 290 288 285 281 279 278 273 268 267 269 273 270 257 248 248 253 253 247 243 233
315 314 313 315 317 317 320 306 295 299 290 291 307 303 306 302 302 303 300 298 299 297 294 291 288 284 282 282 280 277 268 266 266 268 266 260 249 244 250 253 247 243 232 229
326 327 326 326 326 327 314 312 309 305 307 306 307 306 306 306 311 314 311 310 307 302 301 299 296 292 289 287 286 284 277 268 263 261 256 247 241 245 248 249 246 240 236 229
325 326 325 326 324 318 313 307 305 310 308 311 311 311 314 315 314 315 309 308 307 308 303 299 299 298 295 290 286 287 279 264 256 248 243 243 245 241 242 240 239 238 237 233
322 323 323 321 318 321 309 309 316 310 314 317 317 319 318 316 313 319 315 313 307 304 305 306 306 303 295 290 290 284 272 260 254 248 246 246 241 236 238 240 242 236 237 231
318 319 322 325 315 311 306 299 310 314 316 316 318 321 320 320 320 321 320 315 309 307 307 307 306 300 294 294 286 279 276 266 249 242 241 240 239 236 232 238 239 227 221 224
321 323 327 318 313 313 305 309 305 312 319 320 319 320 322 323 322 321 320 315 309 305 303 305 306 300 285 285 284 284 281 268 253 242 236 235 232 229 229 232 226 220 219 224
323 322 323 312 314 307 318 314 314 315 318 319 322 324 326 324 323 323 321 316 315 315 316 318 319 318 299 280 276 285 291 282 254 237 232 227 225 224 224 217 213 216 215 211
322 326 324 320 309 313 317 319 320 323 324 325 326 325 327 324 327 328 327 333 338 336 331 324 317 307 297 285 283 281 274 264 245 220 208 201 202 202 202 203 209 213 210 208
326 326 321 312 311 313 314 316 320 325 328 328 325 326 324 330 334 343 355 346 336 328 318 310 303 295 290 283 275 265 253 237 224 198 183 181 183 185 193 204 210 212 216 213
328 326 317 319 313 312 312 316 318 327 332 328 327 328 330 332 338 344 341 338 337 331 325 319 311 299 289 282 273 250 239 219 202 193 182 180 180 180 181 188 203 207 214 216
Height
5861 5860 5859 5857 5856 5856 5855 5854 5852 5850 5846 5842 5838 5834 5831 5827 5823 5819 5815 5811 5808 5803 5798 5796 5794 5793 5793 5794 5794 5793 5792 5791 5790 5790 5789 5789 5790 5792 5793 5794 5796 5798 5798 5800
5858 5856 5853 5853 5852 5851 5849 5846 5844 5841 5837 5833 5829 5826 5823 5818 5813 5808 5804 5805 5800 5795 5789 5784 5786 5786 5785 5783 5784 5782 5780 5779 5777 5776 5776 5776 5776 5778 5778 5778 5779 5781 5786 5791
5853 5852 5850 5847 5845 5842 5842 5838 5833 5832 5829 5826 5819 5814 5812 5808 5805 5800 5795 5793 5790 5787 5781 5774 5771 5772 5770 5769 5769 5769 5768 5764 5762 5761 5761 5761 5760 5762 5764 5763 5764 5766 5774 5780
5849 5845 5843 5841 5838 5835 5834 5829 5824 5821 5818 5814 5810 5801 5805 5798 5796 5793 5786 5781 5777 5773 5769 5766 5759 5757 5756 5756 5753 5751 5753 5752 5746 5745 5744 5744 5744 5745 5745 5748 5749 5752 5758 5766
5843 5839 5836 5833 5830 5827 5824 5820 5816 5812 5807 5802 5801 5794 5794 5795 5790 5786 5784 5777 5770 5765 5761 5756 5751 5746 5740 5738 5734 5731 5734 5734 5732 5730 5728 5727 5727 5727 5728 5728 5732 5735 5741 5748
5834 5831 5828 5823 5821 5817 5812 5809 5806 5801 5796 5791 5792 5792 5788 5789 5786 5782 5779 5771 5762 5757 5754 5748 5743 5740 5735 5725 5722 5719 5715 5718 5717 5716 5715 5713 5712 5713 5712 5713 5715 5718 5724 5731
5829 5825 5819 5814 5813 5808 5803 5798 5793 5792 5789 5786 5786 5782 5780 5777 5777 5769 5764 5756 5752 5749 5748 5742 5737 5731 5730 5721 5705 5710 5705 5708 5706 5705 5703 5702 5700 5698 5699 5700 5703 5706 5710 5714
5820 5820 5811 5806 5802 5798 5794 5790 5786 5779 5778 5775 5777 5771 5772 5766 5760 5752 5747 5741 5737 5733 5731 5729 5725 5717 5717 5717 5690 5695 5695 5696 5692 5694 5692 5690 5689 5688 5687 5688 5691 5694 5697 5701
5812 5810 5803 5799 5796 5793 5789 5784 5780 5773 5771 5764 5766 5764 5764 5759 5742 5735 5735 5732 5724 5717 5717 5716 5713 5711 5703 5698 5683 5681 5686 5685 5681 5682 5680 5679 5676 5677 5676 5677 5679 5682 5686 5690
5805 5802 5799 5792 5788 5785 5779 5773 5770 5766 5758 5752 5752 5751 5750 5747 5732 5723 5721 5716 5713 5708 5707 5704 5700 5698 5690 5688 5678 5676 5675 5671 5668 5666 5668 5667 5665 5664 5665 5666 5668 5671 5674 5678
5795 5792 5791 5785 5782 5777 5773 5769 5764 5759 5755 5745 5737 5738 5740 5732 5726 5719 5711 5705 5701 5695 5696 5692 5686 5680 5678 5672 5665 5664 5662 5657 5655 5654 5655 5655 5653 5652 5653 5655 5657 5660 5664 5667
5787 5785 5781 5778 5774 5768 5761 5758 5754 5747 5743 5738 5728 5720 5728 5715 5710 5700 5695 5690 5687 5683 5676 5670 5665 5665 5662 5658 5653 5651 5651 5649 5644 5643 5644 5643 5640 5642 5643 5644 5647 5650 5653 5657
5781 5778 5770 5766 5767 5762 5757 5750 5746 5741 5732 5722 5715 5708 5710 5705 5689 5688 5681 5676 5673 5668 5665 5654 5651 5648 5646 5642 5638 5637 5636 5633 5633 5632 5632 5631 5629 5630 5633 5635 5636 5640 5643 5648
5775 5772 5764 5758 5752 5745 5740 5736 5732 5728 5719 5711 5704 5698 5695 5689 5682 5680 5672 5668 5664 5658 5653 5647 5642 5637 5634 5629 5623 5622 5623 5622 5623 5622 5621 5620 5619 5620 5623 5625 5627 5630 5634 5639
5765 5761 5754 5748 5743 5736 5729 5724 5720 5712 5708 5700 5694 5688 5684 5676 5672 5670 5663 5657 5653 5647 5641 5635 5629 5625 5621 5616 5611 5611 5611 5610 5611 5610 5609 5608 5608 5610 5613 5617 5619 5621 5625 5630
5758 5751 5744 5738 5732 5724 5718 5713 5705 5701 5697 5690 5685 5681 5672 5669 5663 5658 5652 5646 5642 5636 5630 5623 5616 5611 5606 5602 5599 5598 5597 5597 5597 5598 5598 5597 5598 5602 5605 5608 5611 5614 5619 5623
5752 5746 5738 5731 5723 5715 5709 5703 5698 5693 5687 5679 5674 5668 5664 5660 5656 5649 5641 5634 5628 5621 5615 5607 5602 5596 5591 5587 5584 5584 5583 5584 5585 5586 5586 5586 5589 5594 5597 5599 5604 5607 5612 5617
5739 5732 5725 5718 5711 5707 5704 5692 5687 5685 5680 5673 5669 5662 5656 5651 5648 5638 5628 5617 5609 5603 5598 5592 5586 5581 5577 5574 5572 5570 5571 5572 5573 5574 5575 5578 5582 5586 5589 5592 5597 5600 5604 5610
5731 5725 5717 5711 5705 5700 5695 5685 5682 5677 5675 5666 5660 5655 5649 5642 5636 5635 5618 5607 5597 5589 5582 5576 5573 5568 5565 5561 5559 5560 5560 5561 5563 5565 5567 5571 5575 5579 5583 5587 5590 5593 5597 5602
5725 5718 5712 5705 5697 5691 5686 5680 5676 5671 5665 5660 5653 5646 5639 5632 5622 5619 5610 5598 5586 5577 5571 5565 5561 5558 5554 5552 5550 5550 5551 5552 5555 5558 5562 5565 5569 5573 5576 5580 5583 5586 5589 5596
5720 5713 5706 5696 5691 5689 5679 5674 5672 5665 5662 5654 5647 5639 5631 5622 5612 5600 5591 5583 5573 5565 5561 5557 5552 5549 5546 5545 5543 5542 5542 5543 5546 5549 5554 5557 5561 5565 5570 5573 5576 5579 5585 5590
5713 5704 5698 5691 5685 5683 5674 5672 5665 5660 5654 5646 5640 5632 5621 5612 5602 5591 5581 5570 5561 5555 5552 5548 5544 5540 5539 5538 5537 5537 5536 5535 5535 5538 5543 5548 5553 5558 5563 5567 5570 5576 5581 5586
5706 5698 5692 5686 5680 5674 5670 5663 5658 5652 5646 5640 5631 5623 5611 5601 5590 5578 5568 5560 5553 5548 5545 5542 5539 5536 5535 5534 5533 5533 5532 5531 5530 5531 5535 5540 5546 5552 5557 5560 5567 5572 5577 5583
5699 5691 5685 5680 5676 5669 5663 5658 5652 5646 5640 5632 5623 5613 5603 5591 5580 5570 5560 5554 5550 5545 5542 5539 5536 5533 5532 5531 5530 5530 5529 5529 5529 5529 5532 5536 5541 5546 5552 5559 5565 5569 5575 5580
5692 5684 5679 5675 5668 5664 5658 5652 5647 5642 5634 5624 5616 5606 5595 5583 5574 5565 5560 5554 5549 5544 5539 5533 5529 5526 5524 5524 5524 5524 5526 5527 5528 5529 5532 5537 5542 5547 5553 5559 5563 5568 5572 5578
5686 5679 5674 5668 5663 5657 5652 5647 5641 5635 5627 5618 5608 5599 5589 5579 5571 5566 5559 5553 5546 5540 5534 5527 5522 5518 5516 5515 5515 5515 5519 5523 5526 5530 5534 5539 5543 5548 5554 5559 5563 5566 5570 5576